Temperature
23 24 24 24 24 24 24 23 23 23 23 22 22 22 22 21 20 20 20 20 19 19 18 17 17 16 16 16 16 16 16 15 15 15 15 15 15 15 14 14 14 14 14 14
24 24 24 24 23 23 23 23 23 23 22 22 22 22 22 22 21 21 20 20 20 19 18 17 16 16 16 16 16 16 16 15 15 15 15 15 15 15 14 14 14 14 14 14
24 24 23 23 23 23 23 23 23 23 22 22 22 22 22 22 21 20 19 20 20 19 18 17 17 16 16 16 16 16 16 15 15 15 15 15 14 14 14 14 14 14 14 14
24 23 23 23 23 23 23 23 23 22 22 22 22 22 23 22 22 21 20 19 19 19 18 17 17 16 16 16 16 16 16 16 15 15 15 15 14 14 14 14 14 14 14 14
23 23 23 23 23 23 23 22 22 22 22 22 22 22 23 22 22 22 21 20 19 18 18 17 17 16 16 16 16 16 15 15 15 15 15 15 14 14 14 14 14 14 14 13
23 22 23 23 22 22 22 22 22 22 22 22 22 22 22 23 22 22 22 20 19 18 18 17 16 16 16 16 16 15 15 15 15 15 15 14 14 14 14 14 14 14 14 13
22 22 22 22 22 22 22 22 22 22 22 22 22 22 22 23 22 22 21 21 20 19 18 17 16 16 16 16 15 15 15 15 15 15 15 15 14 14 14 14 14 14 14 13
22 22 22 22 22 22 22 23 22 21 22 22 22 22 23 22 21 21 20 20 19 19 18 17 17 16 16 16 15 15 15 15 15 15 15 14 14 14 14 14 14 13 13 13
22 22 22 21 22 22 22 22 23 22 22 21 22 22 22 21 21 21 20 20 19 18 18 17 17 16 16 16 15 15 15 15 14 14 14 14 14 14 14 13 13 13 13 13
22 21 21 21 21 21 22 22 22 21 21 21 21 22 22 21 21 21 21 20 19 18 18 17 17 16 16 16 15 15 15 15 14 14 14 14 14 13 13 13 13 13 13 13
22 21 21 21 21 22 21 21 22 21 21 21 21 22 22 22 21 21 20 20 19 18 18 17 16 16 16 16 15 15 15 14 14 14 14 14 14 13 13 13 13 13 13 13
21 21 21 21 21 20 21 22 21 21 21 21 21 21 21 21 20 20 20 19 18 17 17 17 16 16 15 15 15 15 15 14 14 14 14 14 14 13 13 13 13 13 13 13
20 20 20 21 20 20 20 20 21 21 21 21 20 21 21 21 20 20 19 18 18 17 16 16 16 15 15 15 15 15 15 14 14 14 14 13 13 13 13 13 13 13 13 12
19 20 20 20 20 20 20 19 19 20 20 20 21 21 21 20 20 19 18 18 17 16 16 16 15 15 15 15 15 15 14 14 14 13 13 13 13 13 13 13 12 12 12 12
19 20 20 19 19 19 19 19 19 19 20 20 21 20 20 20 19 18 17 17 16 16 16 15 15 15 15 15 14 14 14 14 13 13 13 13 13 13 13 12 12 12 12 12
19 19 19 19 18 18 18 18 19 19 19 19 19 19 20 19 18 18 17 16 16 15 15 15 15 14 14 14 14 14 14 13 13 13 13 13 12 12 12 12 12 12 12 12
18 18 18 19 18 18 18 19 18 18 18 19 19 19 19 18 18 17 16 16 16 15 15 15 15 14 14 14 14 14 14 13 13 13 13 12 12 12 12 11 11 11 11 11
18 18 18 18 18 18 19 18 18 18 18 18 18 18 17 17 16 16 16 15 15 15 14 14 14 14 14 14 14 13 13 13 12 12 12 12 12 11 11 11 11 11 11 11
17 17 17 17 18 18 18 17 17 17 18 18 17 17 16 16 16 16 15 15 14 14 14 14 14 14 13 13 13 13 12 12 12 12 12 11 11 11 11 11 11 11 11 10
15 16 17 16 17 17 18 17 16 17 17 17 17 16 16 16 17 17 15 14 14 14 13 13 13 13 13 13 13 12 12 12 12 12 11 11 11 11 11 11 10 10 10 10
16 16 16 16 17 18 17 16 16 17 17 16 16 15 15 16 16 15 14 13 13 13 13 13 13 13 13 12 12 12 12 12 12 11 11 11 10 10 10 10 10 10 10 9
16 16 16 16 16 16 16 15 16 17 16 15 15 14 14 14 13 13 13 13 12 12 12 12 13 12 12 12 12 12 11 11 11 11 11 10 10 10 10 10 9 9 9 9
15 16 16 16 16 15 14 15 14 14 14 14 14 13 13 13 13 13 12 12 12 12 12 12 12 11 11 11 12 11 11 11 11 10 10 10 10 9 9 9 9 9 9 9
15 14 14 15 15 14 13 13 13 13 13 13 13 12 12 12 12 12 12 12 12 12 11 11 11 11 11 11 11 11 11 10 10 10 10 10 9 9 9 9 9 9 8 8
14 13 14 15 15 14 13 13 12 12 12 12 12 12 12 11 12 11 11 11 11 11 11 11 11 11 10 10 10 10 10 10 10 9 9 9 9 9 8 8 8 8 8 8
13 13 14 14 14 14 13 12 12 12 11 12 11 11 11 11 11 11 11 11 11 11 10 10 10 10 10 10 10 10 9 9 9 9 9 8 8 8 8 8 8 8 8 8
Wind_Speed
4 6 6 6 5 4 4 5 4 3 2 4 6 6 5 6 7 7 7 7 7 7 6 6 5 5 5 5 4 5 5 5 4 3 3 3 3 2 3 2 3 3 3 3
6 7 4 3 4 5 6 6 5 3 2 4 5 6 6 7 8 8 7 8 8 7 7 7 6 6 6 5 5 5 4 4 4 3 3 2 3 2 2 2 2 2 3 3
8 2 3 5 6 6 6 7 5 4 3 5 5 7 7 7 7 7 7 7 7 8 8 8 7 7 6 6 5 5 4 4 4 4 3 3 3 2 3 2 2 1 2 2
5 4 4 6 6 7 6 4 5 5 6 5 5 6 6 7 7 8 8 8 8 8 8 8 8 7 7 6 6 5 5 5 4 4 4 4 3 3 2 2 2 2 2 2
4 4 5 7 5 6 4 2 4 6 7 7 7 7 4 6 7 8 8 9 9 9 9 9 9 8 7 7 6 5 6 5 4 4 4 4 3 2 2 2 2 2 2 1
4 3 4 4 3 4 4 4 4 5 6 8 6 7 4 4 5 5 6 8 9 9 9 9 8 8 7 6 6 6 6 5 5 5 5 5 4 3 3 3 2 2 1 1
6 5 4 4 4 5 7 6 5 5 6 5 2 6 4 1 2 4 5 6 8 9 10 10 9 9 8 7 7 6 6 6 6 6 6 6 5 4 4 3 3 3 2 2
7 6 5 5 7 6 7 8 6 5 5 3 4 5 2 1 1 3 4 5 6 9 10 10 10 9 8 8 7 7 7 7 6 6 6 6 5 4 3 3 3 3 3 2
5 4 2 2 4 6 7 7 6 7 6 6 4 4 3 3 3 3 4 5 6 8 9 9 9 9 8 8 8 7 7 7 6 6 6 5 5 5 4 4 4 3 3 3
5 5 3 3 4 2 5 5 5 6 6 6 5 6 3 4 3 3 4 4 5 6 8 9 8 8 8 8 7 7 6 6 6 6 5 4 4 4 4 4 4 4 4 4
5 6 5 5 6 6 6 6 6 6 6 6 5 3 0 2 2 2 2 3 3 5 7 8 8 8 7 7 7 7 6 6 5 5 5 4 4 4 4 4 4 4 4 4
3 5 6 6 3 3 6 7 8 8 7 7 7 4 3 1 2 2 2 2 2 3 5 6 7 7 7 7 7 7 7 6 5 5 5 5 4 4 4 4 4 4 4 4
2 5 6 5 6 6 5 5 7 7 7 8 9 5 3 2 1 1 2 2 2 3 4 5 6 7 7 7 7 7 7 6 6 5 5 5 5 5 4 4 4 4 4 4
3 6 7 8 4 4 6 6 6 8 9 10 11 10 5 4 4 3 3 2 2 3 4 5 6 6 7 7 7 7 6 6 6 6 6 5 5 5 5 4 4 4 4 3
3 6 6 7 6 6 8 9 9 12 12 12 11 11 9 7 5 4 3 3 3 3 4 5 6 6 6 7 7 7 6 6 6 6 6 5 5 5 4 4 4 3 3 3
2 5 5 7 5 6 9 10 11 12 11 12 11 11 6 5 4 4 4 3 3 3 4 4 5 6 6 6 7 7 6 6 6 6 5 4 4 4 5 5 4 4 3 3
4 5 6 7 5 7 9 8 9 8 8 8 9 7 4 4 4 4 4 4 4 3 3 4 5 5 5 5 6 6 6 6 6 6 5 5 4 4 5 5 5 4 4 4
6 6 5 5 5 8 1 1 3 6 6 6 6 5 4 4 4 4 4 3 3 3 4 4 4 4 4 4 5 5 5 5 6 6 6 5 5 5 5 5 5 5 5 5
6 6 4 4 6 7 3 1 3 6 6 3 4 4 4 3 3 2 1 3 4 4 3 3 4 4 4 4 4 5 5 5 5 6 6 6 6 5 5 5 5 5 5 5
4 6 6 5 6 6 1 1 2 4 5 1 2 2 3 3 5 3 3 4 4 3 2 2 2 3 3 3 4 5 5 5 6 6 6 6 6 6 6 5 5 4 4 4
4 5 7 8 7 5 1 1 2 5 2 1 3 2 2 4 4 4 4 4 3 3 3 2 2 2 3 3 4 5 5 5 5 5 5 5 6 6 6 5 4 4 4 4
5 5 6 6 7 5 2 2 2 3 3 2 2 2 3 3 4 4 4 3 3 3 2 2 2 2 2 3 4 5 5 4 4 4 5 5 5 5 5 5 4 4 4 4
5 4 3 5 3 3 0 2 4 3 3 3 3 3 4 4 4 4 4 3 3 3 3 2 2 3 3 3 4 5 4 4 4 4 5 5 5 5 5 5 4 4 4 4
4 3 4 6 5 5 5 4 4 4 5 4 4 4 4 5 5 5 5 4 3 3 3 3 3 4 3 3 4 4 3 4 4 5 5 5 5 5 5 4 4 4 4 4
4 4 5 8 7 5 5 5 6 6 5 5 5 5 5 5 6 6 5 4 4 4 4 4 4 5 4 4 4 3 4 4 5 5 5 5 5 5 4 4 3 4 4 4
6 6 7 7 6 7 8 7 6 6 6 6 5 6 5 5 6 6 5 4 4 4 4 4 5 5 5 4 4 4 4 5 5 5 5 4 4 4 4 3 2 2 3 3
Wind_Direction
195 210 211 211 229 260 247 236 231 235 228 232 234 235 219 200 201 207 204 198 194 191 179 171 171 169 168 165 162 152 152 150 147 143 143 137 129 122 101 80 71 70 68 73
205 218 222 215 212 223 226 232 237 229 221 241 246 248 229 214 212 214 213 205 199 191 182 177 177 175 180 173 169 162 156 154 156 153 153 151 138 134 114 104 90 76 75 77
223 214 180 199 206 221 233 244 247 249 241 229 254 242 220 207 211 211 218 218 209 199 192 182 183 182 184 183 179 174 167 161 165 159 151 148 138 143 138 133 106 80 73 80
225 218 205 215 223 237 241 242 247 243 250 254 246 264 222 206 210 210 212 211 211 203 197 187 186 187 187 187 187 183 174 170 167 161 167 170 175 166 162 156 144 150 120 94
215 210 216 228 238 241 252 227 238 246 256 259 237 259 230 199 215 214 208 205 206 203 196 188 188 189 186 181 184 186 177 174 171 173 177 194 192 180 168 168 166 165 143 128
236 228 242 242 237 218 193 205 215 231 245 249 241 247 254 209 222 212 200 200 200 197 191 187 185 185 181 176 180 184 183 180 180 185 192 203 198 192 181 185 188 187 171 182
220 213 212 223 211 194 217 236 238 228 227 242 218 245 254 261 242 229 216 202 195 190 187 186 183 184 181 179 182 186 187 186 189 195 202 207 209 209 207 204 206 210 201 209
234 225 211 223 236 229 224 239 250 260 258 256 219 243 237 231 242 216 203 197 189 187 186 186 187 187 186 184 185 189 191 193 195 204 210 211 210 215 219 213 215 219 224 226
239 231 196 231 241 233 224 229 252 264 270 267 241 238 230 169 173 177 177 177 180 186 187 191 191 192 190 189 190 193 193 196 199 206 211 211 213 215 220 220 219 224 230 231
254 245 214 198 194 220 249 213 217 237 253 254 248 244 228 172 176 179 188 190 188 189 191 192 194 195 195 194 194 194 198 199 199 203 205 206 213 214 220 225 224 223 224 226
247 242 224 208 224 223 201 210 225 237 249 259 259 240 150 201 209 219 212 204 202 196 193 193 195 195 196 193 190 190 194 197 196 201 202 202 207 212 216 220 226 225 223 225
242 248 243 232 228 274 243 239 230 241 238 243 264 261 112 193 238 237 226 201 203 202 199 197 195 191 190 191 191 191 190 191 194 197 198 199 200 204 209 214 217 221 224 225
218 242 248 225 204 206 223 229 239 250 252 244 247 247 143 197 251 257 239 231 211 202 198 191 193 192 190 189 191 192 191 194 192 193 199 199 201 205 209 214 215 218 222 225
256 246 253 261 275 241 231 224 227 237 248 251 250 262 250 261 277 272 261 256 232 213 203 194 195 196 193 192 193 194 196 197 196 194 199 204 208 208 213 217 222 220 220 221
255 255 253 265 274 264 256 245 233 240 252 260 266 266 271 278 275 266 261 257 243 235 217 204 200 200 198 197 198 199 201 201 201 200 203 207 209 207 212 215 220 219 219 225
256 253 256 256 250 258 259 255 248 248 253 257 266 269 282 290 273 264 262 257 251 245 234 216 209 206 206 203 202 202 203 202 201 202 204 200 205 204 210 215 215 216 217 225
221 239 256 259 253 262 254 249 237 234 238 241 257 275 289 286 286 277 267 261 262 257 247 228 216 211 213 212 207 204 202 198 199 200 200 199 204 209 213 213 212 214 217 221
227 235 248 263 254 246 244 79 232 237 239 237 263 286 280 280 279 275 268 271 280 275 263 244 228 217 212 205 201 195 193 193 197 202 203 203 207 212 214 214 216 220 220 217
228 223 231 244 253 261 246 246 245 243 247 233 252 278 293 294 276 270 311 308 301 290 279 260 236 222 208 198 191 186 189 195 201 208 210 209 209 211 213 215 219 221 222 220
195 219 229 233 249 255 280 29 265 240 239 210 263 288 295 276 269 293 329 319 313 305 293 274 238 214 206 201 193 195 200 204 210 212 213 211 209 209 211 214 216 217 216 221
189 204 223 235 247 261 16 41 213 232 299 331 277 282 281 274 297 313 311 307 307 303 298 275 233 215 215 209 203 209 211 217 218 211 209 209 208 207 205 206 208 211 215 216
217 213 219 226 237 248 99 148 236 307 349 312 292 291 290 301 315 315 307 305 305 309 298 264 230 230 223 214 214 219 222 221 215 206 205 205 203 200 199 199 204 207 209 211
229 240 246 233 252 3 265 290 321 334 317 314 300 299 299 298 300 302 300 301 305 295 281 260 238 239 236 227 223 224 223 215 208 206 206 204 201 201 201 198 199 205 208 212
226 239 246 254 265 283 278 289 303 308 306 301 294 294 294 287 288 294 292 289 289 284 274 254 243 243 244 240 238 236 222 212 211 210 210 208 204 203 204 205 206 208 210 216
251 223 246 257 274 287 268 285 295 297 297 295 296 295 294 286 283 285 283 282 284 279 268 249 243 245 246 244 243 232 221 217 221 221 215 210 208 207 210 215 215 219 224 223
235 236 246 260 277 278 284 289 293 292 290 291 293 294 294 286 281 284 282 283 282 275 264 253 247 244 246 245 241 228 219 221 226 226 219 213 207 206 211 212 216 192 218 216
Height
1506 1505 1505 1504 1505 1505 1506 1508 1510 1510 1510 1513 1513 1513 1513 1516 1518 1519 1521 1523 1524 1526 1529 1530 1531 1532 1534 1535 1535 1536 1537 1537 1538 1538 1538 1539 1539 1539 1540 1539 1540 1540 1540 1539
1504 1504 1503 1504 1506 1506 1507 1509 1509 1510 1510 1511 1511 1510 1510 1513 1515 1517 1518 1520 1522 1524 1527 1529 1530 1531 1532 1534 1535 1536 1536 1537 1538 1538 1539 1539 1539 1540 1540 1540 1540 1540 1540 1540
1502 1502 1504 1505 1506 1507 1506 1507 1507 1510 1510 1509 1511 1510 1508 1510 1512 1515 1517 1518 1520 1522 1524 1526 1528 1529 1531 1532 1533 1534 1535 1536 1537 1537 1538 1538 1539 1540 1540 1540 1540 1540 1540 1540
1501 1502 1504 1504 1505 1505 1507 1505 1507 1509 1510 1509 1511 1512 1505 1505 1508 1511 1513 1515 1517 1520 1522 1524 1526 1528 1529 1531 1532 1534 1535 1535 1536 1537 1537 1538 1539 1539 1540 1540 1540 1540 1540 1540
1501 1502 1503 1504 1504 1504 1504 1506 1507 1507 1507 1508 1507 1510 1501 1502 1504 1505 1508 1512 1514 1517 1519 1522 1524 1526 1528 1529 1531 1532 1534 1535 1535 1536 1537 1538 1538 1539 1539 1540 1540 1540 1540 1540
1500 1502 1502 1502 1504 1504 1506 1507 1506 1505 1505 1511 1504 1508 1503 1497 1499 1501 1505 1508 1511 1514 1517 1519 1522 1524 1526 1528 1529 1531 1532 1533 1534 1535 1536 1537 1537 1538 1538 1539 1539 1539 1539 1539
1501 1500 1502 1503 1503 1505 1504 1506 1510 1511 1511 1507 1502 1506 1501 1496 1498 1500 1503 1506 1508 1511 1514 1517 1520 1522 1524 1526 1527 1529 1530 1531 1532 1533 1534 1535 1536 1536 1537 1537 1538 1538 1538 1538
1502 1503 1499 1500 1500 1501 1501 1502 1511 1516 1511 1504 1503 1503 1496 1497 1499 1501 1503 1505 1507 1509 1512 1515 1517 1519 1522 1523 1525 1527 1528 1529 1530 1531 1532 1533 1534 1535 1535 1536 1536 1536 1537 1537
1498 1501 1498 1500 1500 1499 1501 1500 1499 1504 1505 1508 1500 1497 1495 1496 1498 1500 1502 1504 1506 1508 1510 1513 1515 1517 1519 1521 1523 1525 1526 1527 1528 1529 1530 1531 1532 1532 1533 1534 1534 1534 1535 1535
1496 1501 1498 1500 1500 1501 1498 1497 1502 1505 1512 1511 1504 1499 1495 1495 1497 1498 1500 1502 1504 1506 1509 1511 1513 1515 1517 1519 1521 1522 1524 1525 1526 1527 1528 1528 1529 1530 1530 1531 1532 1532 1532 1533
1497 1499 1499 1498 1498 1497 1500 1500 1499 1501 1502 1508 1508 1500 1491 1493 1495 1497 1499 1501 1503 1505 1507 1508 1510 1512 1514 1516 1518 1520 1521 1522 1524 1525 1525 1526 1526 1527 1528 1528 1529 1529 1530 1530
1498 1496 1497 1496 1497 1498 1496 1495 1497 1503 1502 1502 1504 1500 1491 1494 1496 1497 1498 1500 1502 1503 1505 1506 1508 1510 1512 1513 1515 1517 1518 1520 1521 1522 1523 1524 1524 1525 1525 1526 1526 1527 1527 1528
1499 1498 1500 1498 1500 1499 1497 1497 1497 1496 1497 1499 1503 1498 1492 1493 1495 1496 1498 1499 1501 1502 1503 1504 1506 1507 1509 1510 1512 1514 1515 1517 1518 1519 1520 1521 1522 1522 1523 1523 1524 1524 1525 1525
1500 1495 1498 1501 1495 1494 1497 1498 1498 1498 1498 1496 1494 1492 1491 1492 1494 1496 1497 1498 1499 1500 1500 1502 1503 1505 1506 1507 1509 1510 1512 1513 1515 1516 1517 1518 1519 1519 1520 1521 1521 1522 1522 1522
1499 1495 1494 1495 1496 1497 1496 1496 1497 1497 1493 1495 1489 1490 1490 1491 1493 1495 1496 1497 1497 1497 1498 1499 1500 1502 1503 1504 1506 1507 1509 1510 1511 1513 1514 1515 1515 1516 1517 1518 1518 1519 1519 1519
1498 1496 1496 1496 1497 1497 1497 1494 1493 1494 1493 1492 1492 1491 1490 1492 1493 1494 1494 1495 1495 1495 1496 1497 1498 1499 1500 1501 1502 1504 1505 1507 1508 1509 1510 1511 1512 1513 1514 1514 1515 1515 1516 1516
1497 1497 1497 1494 1495 1495 1492 1488 1489 1490 1490 1491 1491 1490 1491 1491 1491 1492 1493 1493 1493 1494 1494 1495 1495 1496 1497 1498 1499 1500 1502 1503 1504 1506 1507 1508 1509 1510 1510 1511 1512 1512 1513 1513
1497 1497 1496 1494 1495 1498 1487 1487 1487 1488 1488 1489 1489 1490 1490 1491 1491 1491 1491 1491 1491 1492 1492 1492 1493 1494 1495 1495 1496 1497 1498 1500 1501 1502 1503 1504 1505 1506 1507 1508 1508 1509 1509 1509
1497 1497 1497 1496 1494 1488 1486 1487 1488 1488 1486 1487 1488 1489 1490 1490 1489 1489 1490 1490 1490 1490 1490 1490 1491 1492 1492 1493 1493 1494 1495 1496 1497 1498 1499 1500 1502 1502 1503 1504 1504 1505 1505 1505
1497 1496 1495 1496 1496 1491 1486 1486 1487 1488 1486 1487 1487 1488 1488 1488 1487 1487 1488 1488 1488 1488 1488 1488 1488 1489 1490 1490 1491 1492 1492 1493 1494 1495 1495 1497 1498 1498 1499 1500 1501 1501 1502 1502
1494 1494 1494 1493 1492 1484 1485 1488 1488 1490 1486 1487 1487 1487 1488 1487 1487 1488 1487 1486 1486 1486 1486 1486 1486 1486 1487 1487 1488 1489 1489 1490 1491 1491 1492 1493 1494 1494 1495 1496 1497 1497 1498 1498
1489 1490 1491 1491 1492 1489 1487 1488 1488 1486 1486 1486 1487 1487 1487 1487 1486 1486 1485 1485 1484 1484 1483 1483 1483 1484 1484 1484 1485 1485 1486 1487 1488 1488 1489 1490 1490 1491 1492 1492 1493 1494 1494 1494
1489 1488 1486 1487 1487 1487 1487 1487 1488 1487 1487 1487 1487 1486 1486 1485 1484 1484 1483 1482 1482 1482 1481 1481 1481 1481 1481 1481 1482 1482 1483 1483 1484 1485 1485 1486 1487 1487 1488 1489 1489 1490 1490 1491
1488 1491 1489 1487 1484 1486 1487 1487 1487 1487 1486 1486 1485 1485 1484 1483 1482 1482 1481 1480 1480 1479 1479 1479 1478 1478 1478 1478 1478 1479 1479 1479 1480 1481 1482 1482 1483 1484 1484 1485 1485 1486 1486 1487
1487 1489 1487 1484 1484 1485 1484 1485 1485 1485 1484 1484 1483 1482 1482 1481 1480 1479 1479 1478 1477 1476 1476 1476 1476 1475 1475 1475 1475 1475 1475 1476 1477 1477 1478 1478 1479 1480 1480 1481 1481 1482 1482 1483
1486 1486 1485 1482 1483 1484 1483 1483 1483 1482 1482 1481 1480 1479 1479 1478 1477 1476 1476 1475 1474 1473 1473 1472 1472 1472 1472 1472 1471 1471 1472 1472 1473 1473 1474 1474 1475 1475 1476 1477 1477 1478 1479 1479